Location: Newark
(40.9833°N, 0.0333°W)
Time: 18:02:48
(UTC+00:00)

Transit 4A - Pass Details

Date: 04 November 2020
Orbit: 862 x 982 km, 66.8° (Epoch: 23 November)

Event Time Altitude Azimuth Distance (km) Brightness Sun altitude
Rises 23:35:49 0° 320° (NW) 3,685 - -64.7°
Reaches altitude 10° 23:38:45 10° 309° (NW) 2,724 - -64.7°
Maximum altitude 23:43:59 28° 253° (WSW) 1,734 - -64.8°
Drops below altitude 10° 23:49:07 10° 197° (SSW) 2,657 - -64.7°
Sets 23:51:58 0° 186° (S) 3,577 - -64.7°
